Weather History for KGRI - December, 2012

Change the Weather History Date:

Friday, December 28, 2012

  Actual Average Record
Temperature  
Mean Temperature 11 °F 25 °F  
Max Temperature 19 °F 35 °F 64 °F (2002)
Min Temperature 2 °F 15 °F -18 °F (1924)
Degree Days  
Heating Degree Days 54 40  
Month to date heating degree days 987 1069  
Since 1 July heating degree days 2187 2399  
Cooling Degree Days 0 0  
Month to date cooling degree days 0 0  
Year to date cooling degree days 1507 1034  
Moisture  
Dew Point 9 °F    
Average Humidity 83    
Maximum Humidity 92    
Minimum Humidity 73    
Precipitation  
Precipitation T in 0.01 in 0.42 in (1972)
Month to date precipitation 1.66 0.58  
Year to date precipitation 11.55 26.61  
Snow  
Snow 0.90 in 0.20 in 3.80 in (1979)
Month to date snowfall 9.5 4.6  
Since 1 July snowfall 9.8 8.8  
Snow Depth 6.00 in    
Sea Level Pressure  
Sea Level Pressure 30.12 in    
Wind  
Wind Speed 9 mph (NW)    
Max Wind Speed 8 mph    
Max Gust Speed 9 mph    
Visibility 8 miles    
Events Snow    
T = Trace of Precipitation, MM = Missing Value Source: NWS Daily Summary

Daily Weather History Graph

Daily Weather History Graph

Search for Another Location

Airport or City:

Trip Planner

Search our weather history database for the weather conditions in past years. The results will help you decide how hot, cold, wet, or windy it might be!

Date:

Astronomy

Dec. 28, 2012 Rise Set
Actual Time 7:57 AM CST 5:12 PM CST
Civil Twilight 7:26 AM CST 5:44 PM CST
Nautical Twilight 6:51 AM CST 6:18 PM CST
Astronomical Twilight 6:18 AM CST 6:52 PM CST
Moon 5:51 PM CST (12/28) 7:52 AM CST (12/28)
Length of Visible Light 10h 17m
Length of Day
9h 15m
Full, 100% of the Moon is Illuminated
Dec 28
Full
Jan 4
Last Quarter
Jan 11
New
Jan 18
First Quarter
Jan 26
Full

Hourly Weather History & Observations

Time (CST) Temp. Windchill Dew Point Humidity Pressure Visibility Wind Dir Wind Speed Gust Speed Precip Events Conditions
12:53 AM 18.0 °F 11.1 °F 16.0 °F 92% 30.05 in 4.0 mi West 4.6 mph - 0.00 in   Overcast
1:53 AM 18.0 °F 11.1 °F 16.0 °F 92% 30.05 in 4.0 mi West 4.6 mph - 0.00 in Snow Light Snow
2:53 AM 18.0 °F 7.7 °F 16.0 °F 92% 30.07 in 4.0 mi West 8.1 mph - 0.00 in Snow Light Snow
3:53 AM 18.0 °F 6.1 °F 14.0 °F 84% 30.06 in 7.0 mi WNW 10.4 mph - 0.00 in   Overcast
4:53 AM 15.1 °F -0.1 °F 12.0 °F 88% 30.06 in 9.0 mi NW 15.0 mph - N/A   Overcast
5:53 AM 15.1 °F 2.5 °F 10.9 °F 84% 30.07 in 7.0 mi WNW 10.4 mph - N/A   Overcast
7:53 AM 15.8 °F 3.4 °F 10.4 °F 79% 29.99 in 8.0 mi NW 10.4 mph - N/A   Overcast
8:53 AM 12.0 °F -1.3 °F 8.1 °F 84% 30.11 in 9.0 mi NW 10.4 mph - N/A   Overcast
9:53 AM 10.9 °F -2.6 °F 6.1 °F 81% 30.13 in 8.0 mi WNW 10.4 mph - N/A   Clear
11:53 AM 16.0 °F 1.1 °F 9.0 °F 74% 30.12 in 10.0 mi NNW 15.0 mph - N/A   Clear
2:53 PM 18.0 °F 4.2 °F 12.0 °F 78% 30.11 in 9.0 mi NNW 13.8 mph - N/A   Overcast
3:53 PM 18.0 °F 4.2 °F 12.0 °F 78% 30.13 in 6.0 mi NNW 13.8 mph - 0.00 in Snow Light Snow
4:53 PM 17.1 °F 5.0 °F 10.9 °F 77% 30.14 in 9.0 mi NNW 10.4 mph - 0.00 in   Overcast
5:53 PM 17.1 °F 5.0 °F 10.9 °F 77% 30.16 in 9.0 mi NNW 10.4 mph - N/A   Overcast
6:53 PM 14.0 °F 8.2 °F 8.6 °F 79% 30.08 in 10.0 mi NNW 3.5 mph - N/A   Mostly Cloudy
7:02 PM 12.2 °F 6.1 °F 8.6 °F 85% 30.08 in 10.0 mi NNW 3.5 mph - N/A   Scattered Clouds
7:53 PM 7.0 °F -3.3 °F 3.9 °F 87% 30.20 in 10.0 mi WNW 5.8 mph - N/A   Clear
8:53 PM 5.0 °F -5.6 °F 1.9 °F 87% 30.21 in 10.0 mi WNW 5.8 mph - N/A   Unknown
9:53 PM 3.0 °F -9.3 °F -0.0 °F 87% 30.21 in 10.0 mi WNW 6.9 mph - N/A   Clear
10:53 PM 3.2 °F -10.3 °F -0.4 °F 85% 30.10 in 10.0 mi West 8.1 mph - N/A   Clear
11:53 PM 3.0 °F -9.3 °F -0.0 °F 87% 30.22 in 10.0 mi West 6.9 mph - N/A   Clear